Terug naar catalogus

STARLINK-32498

ActiefCommunicatieVLEO
NORAD 61966·PAYLOAD·🇺🇸 United States

Gelanceerd Nov 14, 2024 vanaf Cape Canaveral Space Force Station

Loading…

Volgende Passages (komende 24 uur)

TLE

VersSource: CelesTrak SupGP

Epoch: Sep 15, 2026, 02:36 UTC

1 61966C 24210H   26258.10881944 -.00016340  00000+0 -59193-3 0  2588
2 61966  43.0007 175.4070 0001218 271.1698 274.9122 15.27581099    19

Volg STARLINK-32498 in realtime met AllMySat

Download on the App Store